Overview Statistics Trail Chart Weather Telemetry Raw packets
 

This is the latest recevied weather packets stored in our database for station/object KF0WJA. If no packets are shown the sender has not sent any weather packets the latest 10 day(s).

<< 95 96 97 98 99 100 101 >>
Time Temp. Humidity Pressure Rain* Wind** Luminosity Snow
1787955260 35.56° C 32% 1019.3 hPa 0 mm - 415 W/m² -
1787954954 35° C 33% 1019.4 hPa 0 mm - 410 W/m² -
1787954651 35° C 33% 1019.2 hPa 0 mm - 433 W/m² -
1787954349 35° C 33% 1019.4 hPa 0 mm - 419 W/m² -
1787954045 35.56° C 34% 1019.3 hPa 0 mm - 430 W/m² -
1787953744 35° C 33% 1019.5 hPa 0 mm - 453 W/m² -
1787953439 35° C 33% 1019.5 hPa 0 mm - 461 W/m² -
1787953136 35.56° C 32% 1019.5 hPa 0 mm - 485 W/m² -
1787952836 35° C 33% 1019.7 hPa 0 mm - 494 W/m² -
1787952536 35.56° C 32% 1019.7 hPa 0 mm - 493 W/m² -
1787952235 35.56° C 32% 1019.8 hPa 0 mm - 516 W/m² -
1787951931 35.56° C 33% 1019.9 hPa 0 mm - 544 W/m² -
1787951627 35° C 32% 1020 hPa 0 mm - 541 W/m² -
1787951323 34.44° C 33% 1020.2 hPa 0 mm - 550 W/m² -
1787951024 35° C 33% 1020.2 hPa 0 mm - 542 W/m² -
1787950713 35° C 32% 1020.2 hPa 0 mm - 558 W/m² -
1787950410 35.56° C 31% 1020.3 hPa 0 mm - 606 W/m² -
1787950106 35° C 32% 1020.6 hPa 0 mm - 607 W/m² -
1787949801 34.44° C 36% 1020.4 hPa 0 mm - 618 W/m² -
1787949501 35° C 34% 1020.4 hPa 0 mm - 650 W/m² -
1787949196 34.44° C 35% 1020.4 hPa 0 mm - 644 W/m² -
1787948891 34.44° C 33% 1020.8 hPa 0 mm - 652 W/m² -
1787948587 34.44° C 33% 1020.9 hPa 0 mm - 654 W/m² -
1787948282 33.89° C 36% 1020.9 hPa 0 mm - 658 W/m² -
1787947976 34.44° C 36% 1020.9 hPa 0 mm - 655 W/m² -

* Rain latest hour (hover to see other rain measurements)
** Current wind speed in m/s (hover to see current wind gust speed)